Time,TemperatureF,DewpointF,PressureIn,WindDirection,WindDirectionDegrees,WindSpeedMPH,WindSpeedGustMPH,Humidity,HourlyPrecipIn,Conditions,Clouds,dailyrainin,SoftwareType,DateUTC
2013-10-06 00:02:00,33.0,30.0,-100.00,SE,131,6.0,8.0,90,0.00,,,0.00,,2013-10-06 06:02:00,
2013-10-06 00:22:00,33.0,30.0,-100.00,SE,136,6.0,7.0,90,0.00,,,0.00,,2013-10-06 06:22:00,
2013-10-06 00:32:00,33.0,30.0,-100.00,SE,136,6.0,7.0,90,0.00,,,0.00,,2013-10-06 06:32:00,
2013-10-06 00:52:00,32.0,30.0,-100.00,SE,136,6.0,7.0,93,0.00,,,0.00,,2013-10-06 06:52:00,
2013-10-06 01:02:00,32.0,30.0,-100.00,SE,136,6.0,7.0,93,0.00,,,0.00,,2013-10-06 07:02:00,
2013-10-06 01:22:00,32.0,29.0,-100.00,SE,130,7.0,8.0,89,0.00,,,0.00,,2013-10-06 07:22:00,
2013-10-06 01:32:00,32.0,29.0,-100.00,SE,130,7.0,8.0,89,0.00,,,0.00,,2013-10-06 07:32:00,
2013-10-06 01:52:00,33.0,29.0,-100.00,ESE,123,8.0,10.0,86,0.00,,,0.00,,2013-10-06 07:52:00,
2013-10-06 02:02:00,33.0,29.0,-100.00,ESE,123,8.0,10.0,86,0.00,,,0.00,,2013-10-06 08:02:00,
2013-10-06 02:22:00,33.0,29.0,-100.00,SE,130,6.0,8.0,87,0.00,,,0.00,,2013-10-06 08:22:00,
2013-10-06 02:32:00,33.0,29.0,-100.00,SE,130,6.0,8.0,87,0.00,,,0.00,,2013-10-06 08:32:00,
2013-10-06 02:53:00,32.0,29.0,-100.00,SE,133,6.0,7.0,88,0.00,,,0.00,,2013-10-06 08:53:00,
2013-10-06 03:01:00,32.0,29.0,-100.00,SE,133,6.0,7.0,88,0.00,,,0.00,,2013-10-06 09:01:00,
2013-10-06 03:22:00,32.0,29.0,-100.00,SE,138,6.0,7.0,90,0.00,,,0.00,,2013-10-06 09:22:00,
2013-10-06 03:33:00,32.0,29.0,-100.00,SE,138,6.0,7.0,90,0.00,,,0.00,,2013-10-06 09:33:00,
2013-10-06 03:53:00,32.0,29.0,-100.00,SE,127,7.0,8.0,89,0.00,,,0.00,,2013-10-06 09:53:00,
2013-10-06 04:03:00,32.0,29.0,-100.00,SE,127,7.0,8.0,89,0.00,,,0.00,,2013-10-06 10:03:00,
2013-10-06 04:23:00,31.0,29.0,-100.00,SE,130,6.0,8.0,91,0.00,,,0.00,,2013-10-06 10:23:00,
2013-10-06 04:32:00,31.0,29.0,-100.00,SE,130,6.0,8.0,91,0.00,,,0.00,,2013-10-06 10:32:00,
2013-10-06 04:53:00,31.0,29.0,-100.00,SE,138,7.0,9.0,92,0.00,,,0.00,,2013-10-06 10:53:00,
2013-10-06 05:02:00,31.0,29.0,-100.00,SE,138,7.0,9.0,92,0.00,,,0.00,,2013-10-06 11:02:00,
2013-10-06 05:21:00,30.0,29.0,-100.00,SE,141,7.0,9.0,94,0.00,,,0.00,,2013-10-06 11:21:00,
2013-10-06 05:33:00,30.0,29.0,-100.00,SE,141,7.0,9.0,94,0.00,,,0.00,,2013-10-06 11:33:00,
2013-10-06 05:52:00,30.0,29.0,-100.00,SE,138,8.0,10.0,94,0.00,,,0.00,,2013-10-06 11:52:00,
2013-10-06 06:02:00,30.0,29.0,-100.00,SE,138,8.0,10.0,94,0.00,,,0.00,,2013-10-06 12:02:00,
2013-10-06 06:22:00,30.0,29.0,-100.00,SE,144,8.0,9.0,94,0.00,,,0.00,,2013-10-06 12:22:00,
2013-10-06 06:32:00,30.0,29.0,-100.00,SE,144,8.0,9.0,94,0.00,,,0.00,,2013-10-06 12:32:00,
2013-10-06 06:52:00,30.0,29.0,-100.00,SE,141,7.0,10.0,95,0.00,,,0.00,,2013-10-06 12:52:00,
2013-10-06 07:02:00,30.0,29.0,-100.00,SE,141,7.0,10.0,95,0.00,,,0.00,,2013-10-06 13:02:00,
2013-10-06 07:21:00,29.0,29.0,-100.00,SE,140,8.0,9.0,97,0.00,,,0.00,,2013-10-06 13:21:00,
2013-10-06 07:32:00,29.0,29.0,-100.00,SE,140,8.0,9.0,97,0.00,,,0.00,,2013-10-06 13:32:00,
2013-10-06 07:52:00,29.0,29.0,-100.00,SSE,147,9.0,11.0,98,0.00,,,0.00,,2013-10-06 13:52:00,
2013-10-06 08:02:00,29.0,29.0,-100.00,SSE,147,9.0,11.0,98,0.00,,,0.00,,2013-10-06 14:02:00,
2013-10-06 08:22:00,29.0,29.0,-100.00,SSE,147,8.0,10.0,97,0.00,,,0.00,,2013-10-06 14:22:00,
2013-10-06 08:32:00,29.0,29.0,-100.00,SSE,147,8.0,10.0,97,0.00,,,0.00,,2013-10-06 14:32:00,
2013-10-06 08:52:00,29.0,29.0,-100.00,SE,143,8.0,10.0,100,0.00,,,0.00,,2013-10-06 14:52:00,
2013-10-06 09:02:00,29.0,29.0,-100.00,SE,143,8.0,10.0,100,0.00,,,0.00,,2013-10-06 15:02:00,
2013-10-06 09:22:00,29.0,29.0,-100.00,SE,141,7.0,9.0,99,0.00,,,0.00,,2013-10-06 15:22:00,
2013-10-06 09:34:00,29.0,29.0,-100.00,SE,141,7.0,9.0,99,0.00,,,0.00,,2013-10-06 15:34:00,
2013-10-06 09:54:00,31.0,30.0,-100.00,SE,143,8.0,10.0,95,0.00,,,0.00,,2013-10-06 15:54:00,
2013-10-06 10:03:00,31.0,30.0,-100.00,SE,143,8.0,10.0,95,0.00,,,0.00,,2013-10-06 16:03:00,
2013-10-06 10:23:00,34.0,31.0,-100.00,SE,144,8.0,10.0,90,0.00,,,0.00,,2013-10-06 16:23:00,
2013-10-06 10:33:00,34.0,31.0,-100.00,SE,144,8.0,10.0,90,0.00,,,0.00,,2013-10-06 16:33:00,
2013-10-06 10:53:00,38.0,32.0,-100.00,SE,138,9.0,11.0,79,0.00,,,0.00,,2013-10-06 16:53:00,
2013-10-06 11:02:00,38.0,32.0,-100.00,SE,138,9.0,11.0,79,0.00,,,0.00,,2013-10-06 17:02:00,
2013-10-06 11:22:00,38.0,32.0,-100.00,SE,144,8.0,12.0,79,0.00,,,0.00,,2013-10-06 17:22:00,
2013-10-06 11:33:00,38.0,32.0,-100.00,SE,144,8.0,12.0,79,0.00,,,0.00,,2013-10-06 17:33:00,
2013-10-06 11:52:00,40.0,32.0,-100.00,SE,140,9.0,13.0,74,0.00,,,0.00,,2013-10-06 17:52:00,
2013-10-06 12:02:00,40.0,32.0,-100.00,SE,140,9.0,13.0,74,0.00,,,0.00,,2013-10-06 18:02:00,
2013-10-06 12:21:00,44.0,32.0,-100.00,SSE,151,9.0,13.0,63,0.00,,,0.00,,2013-10-06 18:21:00,
2013-10-06 12:32:00,44.0,32.0,-100.00,SSE,151,9.0,13.0,63,0.00,,,0.00,,2013-10-06 18:32:00,
2013-10-06 12:52:00,45.0,30.0,-100.00,SSE,151,8.0,11.0,55,0.00,,,0.00,,2013-10-06 18:52:00,
2013-10-06 13:01:00,45.0,30.0,-100.00,SSE,151,8.0,11.0,55,0.00,,,0.00,,2013-10-06 19:01:00,
2013-10-06 13:22:00,46.0,30.0,-100.00,SSE,162,9.0,12.0,54,0.00,,,0.00,,2013-10-06 19:22:00,
2013-10-06 13:32:00,46.0,30.0,-100.00,SSE,162,9.0,12.0,54,0.00,,,0.00,,2013-10-06 19:32:00,
2013-10-06 13:53:00,47.0,29.0,-100.00,South,172,7.0,11.0,49,0.00,,,0.00,,2013-10-06 19:53:00,
2013-10-06 14:02:00,47.0,29.0,-100.00,South,172,7.0,11.0,49,0.00,,,0.00,,2013-10-06 20:02:00,
2013-10-06 14:22:00,48.0,29.0,-100.00,SSE,158,9.0,14.0,47,0.00,,,0.00,,2013-10-06 20:22:00,
2013-10-06 14:32:00,48.0,29.0,-100.00,SSE,158,9.0,14.0,47,0.00,,,0.00,,2013-10-06 20:32:00,
2013-10-06 14:52:00,49.0,28.0,-100.00,SSE,155,9.0,15.0,45,0.00,,,0.00,,2013-10-06 20:52:00,
2013-10-06 15:01:00,49.0,28.0,-100.00,SSE,155,9.0,15.0,45,0.00,,,0.00,,2013-10-06 21:01:00,
2013-10-06 15:22:00,49.0,27.0,-100.00,SSE,157,10.0,15.0,42,0.00,,,0.00,,2013-10-06 21:22:00,
2013-10-06 15:34:00,49.0,27.0,-100.00,SSE,157,10.0,15.0,42,0.00,,,0.00,,2013-10-06 21:34:00,
2013-10-06 15:54:00,50.0,29.0,-100.00,SSE,152,8.0,11.0,43,0.00,,,0.00,,2013-10-06 21:54:00,
2013-10-06 16:03:00,50.0,29.0,-100.00,SSE,152,8.0,11.0,43,0.00,,,0.00,,2013-10-06 22:03:00,
2013-10-06 16:24:00,51.0,28.0,-100.00,SSE,161,9.0,12.0,41,0.00,,,0.00,,2013-10-06 22:24:00,
2013-10-06 16:33:00,51.0,28.0,-100.00,SSE,161,9.0,12.0,41,0.00,,,0.00,,2013-10-06 22:33:00,
2013-10-06 16:53:00,51.0,28.0,-100.00,South,178,8.0,11.0,41,0.00,,,0.00,,2013-10-06 22:53:00,
2013-10-06 17:03:00,51.0,28.0,-100.00,South,178,8.0,11.0,41,0.00,,,0.00,,2013-10-06 23:03:00,
2013-10-06 17:22:00,51.0,28.0,-100.00,SSE,158,7.0,12.0,41,0.00,,,0.00,,2013-10-06 23:22:00,
2013-10-06 17:34:00,51.0,28.0,-100.00,SSE,158,7.0,12.0,41,0.00,,,0.00,,2013-10-06 23:34:00,
2013-10-06 17:53:00,51.0,29.0,-100.00,SSE,160,7.0,11.0,42,0.00,,,0.00,,2013-10-06 23:53:00,
2013-10-06 18:02:00,51.0,29.0,-100.00,SSE,160,7.0,11.0,42,0.00,,,0.00,,2013-10-07 00:02:00,
2013-10-06 18:22:00,50.0,28.0,-100.00,SSE,162,6.0,10.0,42,0.00,,,0.00,,2013-10-07 00:22:00,
2013-10-06 18:32:00,50.0,28.0,-100.00,SSE,162,6.0,10.0,42,0.00,,,0.00,,2013-10-07 00:32:00,
2013-10-06 19:22:00,45.0,31.0,-100.00,SSE,151,7.0,9.0,58,0.00,,,0.00,,2013-10-07 01:22:00,
2013-10-06 19:32:00,45.0,31.0,-100.00,SSE,151,7.0,9.0,58,0.00,,,0.00,,2013-10-07 01:32:00,
2013-10-06 20:22:00,43.0,31.0,-100.00,SE,141,6.0,7.0,61,0.00,,,0.00,,2013-10-07 02:22:00,
2013-10-06 20:32:00,43.0,31.0,-100.00,SE,141,6.0,7.0,61,0.00,,,0.00,,2013-10-07 02:32:00,
2013-10-06 20:53:00,42.0,30.0,-100.00,SE,141,6.0,8.0,63,0.00,,,0.00,,2013-10-07 02:53:00,
2013-10-06 21:02:00,42.0,30.0,-100.00,SE,141,6.0,8.0,63,0.00,,,0.00,,2013-10-07 03:02:00,
2013-10-06 21:22:00,41.0,31.0,-100.00,SE,141,8.0,11.0,66,0.00,,,0.00,,2013-10-07 03:22:00,
2013-10-06 21:34:00,41.0,31.0,-100.00,SE,141,8.0,11.0,66,0.00,,,0.00,,2013-10-07 03:34:00,
2013-10-06 21:54:00,42.0,31.0,-100.00,SE,144,8.0,10.0,66,0.00,,,0.00,,2013-10-07 03:54:00,
2013-10-06 22:04:00,42.0,31.0,-100.00,SE,144,8.0,10.0,66,0.00,,,0.00,,2013-10-07 04:04:00,
2013-10-06 22:24:00,42.0,32.0,-100.00,SSE,147,8.0,9.0,66,0.00,,,0.00,,2013-10-07 04:24:00,
2013-10-06 22:34:00,42.0,32.0,-100.00,SSE,147,8.0,9.0,66,0.00,,,0.00,,2013-10-07 04:34:00,
2013-10-06 22:53:00,42.0,32.0,-100.00,SE,144,7.0,9.0,69,0.00,,,0.00,,2013-10-07 04:53:00,
2013-10-06 23:03:00,42.0,32.0,-100.00,SE,144,7.0,9.0,69,0.00,,,0.00,,2013-10-07 05:03:00,
2013-10-06 23:22:00,42.0,33.0,-100.00,SSE,147,8.0,10.0,69,0.00,,,0.00,,2013-10-07 05:22:00,
2013-10-06 23:34:00,42.0,33.0,-100.00,SSE,147,8.0,10.0,69,0.00,,,0.00,,2013-10-07 05:34:00,
2013-10-06 23:52:00,41.0,33.0,-100.00,SSE,147,8.0,10.0,72,0.00,,,0.00,,2013-10-07 05:52:00,